Location: Holyhead Bay
(53.3667°N, 4.6667°W)
Time: 07:17:48
(UTC+00:00)

ADEOS Rocket - Pass Details

Date: 22 April 2021
Orbit: 859 x 1306 km, 98.7° (Epoch: 12 May)

Event Time Altitude Azimuth Distance (km) Brightness Sun altitude
Exits shadow 03:18:33 - 180° (S) 3,269 5.3 -13.9°
Reaches altitude 10° 03:19:38 10° 182° (S) 2,879 5.0 -13.8°
Maximum altitude 03:26:07 58° 261° (W) 1,317 3.4 -13.0°
Drops below altitude 10° 03:33:21 10° 340° (NNW) 3,199 6.0 -12.2°
Sets 03:36:12 0° 344° (NNW) 4,216 6.7 -11.9°
